DW7054 Weather Reports


time (UTC)temp
F
wind
direction
speed
knots
gust
knots
rain 1hr
in
rain 24hr
in
rain mn
in
humidity
%
barometer
mb
20200531081519 70 152 0.0 0.0 0.00 1.46 1.45 98 1014.4
20200531074629 70 152 0.0 0.0 0.00 1.46 1.45 98 1014.3
20200531073129 70 152 0.0 0.9 0.00 1.46 1.45 98 1014.3
20200531071555 70 126 0.0 1.7 0.00 1.46 1.45 98 1014.5
20200531070124 70 178 0.0 0.0 0.00 1.46 1.45 98 1014.6
20200531064513 70 178 0.0 0.0 0.00 1.46 1.45 98 1014.5
20200531063039 70 178 0.0 0.0 0.00 1.46 1.45 99 1014.4
20200531061648 70 178 0.0 0.0 0.00 1.46 1.45 98 1014.5
20200531060238 70 178 0.0 0.0 0.01 1.46 1.45 98 1014.8
20200531054651 70 178 0.0 0.0 0.01 1.46 1.45 98 1014.9
20200531053216 70 178 0.0 0.0 0.01 1.46 1.45 98 1015.3
20200531051708 70 178 0.0 0.0 0.01 1.46 1.45 98 1015.6
20200531050133 70 178 0.0 0.0 0.00 1.45 1.44 98 1015.7
20200531044644 70 178 0.0 0.0 0.00 1.45 1.44 98 1015.6
20200531043216 70 178 0.0 0.0 0.00 1.45 1.44 98 1015.5
20200531041648 70 178 0.0 0.0 0.00 1.45 1.44 98 1015.5
20200531040113 70 178 0.0 0.0 0.00 1.45 1.44 98 1015.6
20200531034537 70 178 0.0 0.0 0.00 1.45 1.44 98 1015.7
20200531033127 70 178 0.0 0.0 0.00 1.45 1.44 98 1015.7
20200531031518 71 178 0.0 0.0 0.00 1.45 1.44 98 1015.8
20200531030041 71 178 0.0 0.0 0.00 1.45 1.44 98 1016.0
20200531024638 71 178 0.0 0.0 0.00 1.45 1.44 98 1016.0
20200531023139 71 178 0.0 0.0 0.00 1.54 1.44 98 1015.6
20200531021633 71 178 0.0 0.0 0.00 1.54 1.44 98 1015.6
20200531020104 71 178 0.0 0.0 0.00 1.54 1.44 98 1015.3
20200531014621 71 178 0.0 0.0 0.00 1.54 1.44 98 1015.4
20200531013057 71 178 0.0 0.0 0.00 1.63 1.44 98 1015.1
20200531011603 71 178 0.0 0.0 0.00 1.63 1.44 98 1014.7
20200531010152 71 178 0.0 1.7 0.00 1.63 1.44 97 1014.5
20200531004618 71 19 0.0 0.0 0.00 1.63 1.44 97 1014.8
20200531003052 71 19 0.0 0.0 0.01 3.45 1.44 97 1014.7
20200531001551 71 19 0.0 1.7 0.03 3.45 1.44 97 1014.7
20200531000059 71 46 0.9 1.7 0.03 3.45 1.44 97 1014.6
20200530234523 71 55 0.0 1.7 0.03 3.45 1.44 97 1013.9
20200530233006 70 207 0.0 0.0 0.02 3.47 1.43 96 1013.7
20200530231620 70 207 0.0 0.0 0.31 3.45 1.41 96 1013.9
20200530230117 70 207 0.0 0.0 1.37 3.45 1.41 96 1014.0
20200530224558 70 316 0.0 1.7 1.41 3.45 1.41 95 1014.5
20200530223124 70 32 0.0 7.0 1.41 3.60 1.41 94 1013.4
20200530221508 73 126 7.0 17.4 1.00 3.19 1.00 87 1014.9
20200530220015 82 230 1.7 3.5 0.03 2.22 0.03 87 1013.9
20200530214642 85 111 0.0 3.5 0.00 2.19 0.00 79 1012.7
20200530213111 86 94 0.0 6.1 0.00 2.19 0.00 79 1012.9
20200530211613 88 11 0.0 6.1 0.00 2.19 0.00 75 1013.0
20200530210053 89 93 1.7 7.0 0.00 2.19 0.00 71 1013.1
20200530204506 92 241 0.0 2.6 0.00 2.19 0.00 59 1013.2
20200530203008 93 68 0.0 2.6 0.00 2.19 0.00 59 1013.2
20200530201646 93 276 0.0 2.6 0.00 2.19 0.00 61 1013.4
20200530200108 92 42 0.0 1.7 0.00 2.19 0.00 63 1013.6
20200530194551 91 14 0.0 2.6 0.00 2.19 0.00 65 1013.9
20200530193148 92 311 0.0 1.7 0.00 2.19 0.00 64 1014.0
20200530191605 91 239 0.0 1.7 0.00 2.19 0.00 66 1014.1
20200530190109 91 266 0.0 1.7 0.00 2.19 0.00 66 1014.2
20200530184540 91 266 0.0 1.7 0.00 2.19 0.00 65 1014.4
20200530183059 90 302 0.0 3.5 0.00 2.19 0.00 68 1014.6
20200530181528 91 32 0.9 4.3 0.00 2.19 0.00 65 1014.7
20200530180015 90 279 0.0 3.5 0.00 2.19 0.00 68 1014.7
20200530174634 89 309 0.0 0.9 0.00 2.19 0.00 72 1014.9
20200530173100 89 240 0.0 0.9 0.00 2.19 0.00 69 1015.1
20200530171639 89 294 0.0 2.6 0.00 2.19 0.00 71 1015.3
20200530170038 89 293 0.9 5.2 0.00 2.19 0.00 71 1015.5
20200530164511 88 300 0.9 5.2 0.00 2.19 0.00 74 1015.6
20200530163017 87 184 0.0 2.6 0.00 2.19 0.00 76 1015.6
20200530161630 86 251 0.0 4.3 0.00 2.19 0.00 77 1015.8
20200530160101 86 184 0.0 2.6 0.00 2.19 0.00 78 1015.8
20200530154555 86 180 0.0 2.6 0.00 2.19 0.00 78 1016.0
20200530153032 85 301 0.0 1.7 0.00 2.19 0.00 83 1016.0
20200530151506 82 164 0.0 2.6 0.00 2.19 0.00 86 1016.1
20200530150207 81 223 0.0 1.7 0.00 2.19 0.00 89 1016.0
20200530144605 79 265 0.0 0.0 0.00 2.19 0.00 93 1016.1
20200530143100 79 268 0.0 0.0 0.00 2.19 0.00 95 1016.2
20200530141519 77 169 0.0 0.9 0.00 2.19 0.00 97 1016.3
20200530140017 77 196 0.0 1.7 0.00 2.19 0.00 99 1016.4
20200530134613 77 260 0.0 0.0 0.00 2.19 0.00 99 1016.4
20200530133144 76 150 0.0 4.3 0.00 2.19 0.00 99 1016.5
20200530131636 76 148 0.0 0.0 0.00 2.19 0.00 99 1016.6
20200530130121 75 246 0.0 0.9 0.00 2.19 0.00 99 1016.7
20200530124513 75 101 0.0 0.0 0.00 2.19 0.00 99 1016.7
20200530123010 74 101 0.0 0.0 0.00 2.19 0.00 99 1016.6
20200530121657 74 101 0.0 0.0 0.00 2.19 0.00 99 1016.5
20200530120113 73 101 0.0 0.0 0.00 2.19 0.00 99 1016.3
20200530114546 72 101 0.0 0.0 0.00 2.19 0.00 99 1016.3
20200530113030 71 101 0.0 0.0 0.00 2.19 0.00 99 1016.1
20200530111521 71 122 0.0 0.0 0.00 2.19 0.00 99 1016.0
20200530110002 71 112 0.0 0.0 0.01 2.19 0.00 99 1015.8
20200530104611 70 112 0.0 0.0 0.01 2.19 0.00 99 1015.5
20200530103044 70 112 0.0 0.0 0.01 2.19 2.19 99 1015.5
20200530101540 70 112 0.0 0.0 0.01 2.19 2.19 99 1015.5
20200530100021 70 112 0.0 0.0 0.00 2.18 2.18 99 1015.5
20200530094503 69 112 0.0 0.0 0.00 2.18 2.18 99 1015.4
20200530093007 69 112 0.0 0.0 0.00 2.18 2.18 98 1015.5
20200530090135 68 112 0.0 0.0 0.00 2.18 2.18 98 1015.5
20200530084618 68 112 0.0 0.0 0.00 2.18 2.18 98 1015.6
20200530083026 68 112 0.0 0.0 0.00 2.18 2.18 98 1015.7